#timestamp,LO_Frequency,Temp,Hum 
1440169215.8,286078803.3,27.8,27.7 
1440169235.9,286078801.4,27.8,28.2 
1440169256.0,286078799.9,27.8,28.7 
1440169275.2,286078797.5,27.1,27.7 
1440169295.4,286078800.7,27.8,28.2 
1440169315.5,286078801.0,27.8,28.7 
1440169335.6,286078799.2,27.8,29.2 
1440169355.7,286078799.9,27.8,29.7 
1440169375.9,286078796.9,27.8,29.7 
1440169396.0,286078803.8,27.8,30.2 
1440169415.2,286078799.1,27.8,29.7 
1440169435.3,286078800.0,27.8,29.2 
1440169455.5,286078802.8,27.8,29.2 
1440169475.6,286078800.3,27.8,29.7 
1440169495.7,286078797.8,27.8,30.2 
1440169515.9,286078801.5,27.8,30.7 
1440169536.0,286078799.8,27.8,31.2 
1440169555.2,286078801.3,27.8,30.2 
1440169575.3,286078800.4,27.8,30.2 
1440169595.5,286078801.9,27.8,30.2 
1440169615.6,286078797.3,27.8,32.2 
1440169635.7,286078795.2,27.8,31.7 
1440169655.8,286078802.2,27.8,31.7 
1440169676.0,286078799.4,27.8,31.2 
1440169696.1,286078800.1,27.8,31.2 
1440169715.3,286078800.9,27.8,31.2 
1440169735.4,286078799.9,27.8,31.2 
1440169755.6,286078796.6,27.8,31.7 
1440169775.7,286078799.2,27.8,32.2 
1440169795.8,286078799.2,27.8,31.2 
1440169815.9,286078800.1,27.8,30.2 
1440169836.1,286078799.9,27.8,30.7 
1440169855.3,286078799.2,27.8,29.7 
1440169875.4,286078798.5,27.8,29.2 
1440169895.5,286078802.6,27.8,29.7 
1440169915.7,286078799.9,27.8,28.7 
1440169935.8,286078801.4,27.8,28.7 
1440169955.9,286078797.2,27.8,26.7 
1440169976.0,286078802.6,27.8,27.7 
1440169995.2,286078799.8,27.8,28.2 
1440170015.4,286078796.8,27.8,30.2 
1440170035.5,286078799.2,27.8,29.2 
1440170055.6,286078801.0,27.8,28.7 
1440170075.8,286078799.7,27.8,28.2 
1440170095.9,286078801.5,27.8,28.2 
1440170116.0,286078797.1,27.8,28.2 
1440170135.2,286078801.4,27.8,27.7 
1440170155.3,286078798.2,27.8,28.7 
1440170175.5,286078798.5,27.8,29.2 
1440170195.6,286078803.0,27.8,29.2 
1440170215.7,286078799.4,27.8,28.2 
1440170235.8,286078797.2,27.8,28.7 
1440170256.0,286078800.1,27.8,28.7 
1440170276.1,286078797.0,27.8,29.2 
1440170295.3,286078801.7,27.8,29.2 
1440170315.4,286078802.4,27.8,29.2 
1440170335.6,286078799.2,27.8,29.7 
1440170355.7,286078797.3,27.8,29.2 
1440170375.8,286078800.1,27.8,29.2 
1440170395.9,286078800.8,27.8,28.7 
1440170416.1,286078799.0,27.8,28.2 
1440170435.3,286078803.4,27.8,27.7 
1440170455.4,286078800.1,27.8,27.7 
1440170475.5,286078799.7,27.8,28.2 
1440170495.7,286078799.1,27.8,29.2 
1440170515.8,286078798.6,27.8,29.2 
1440170535.9,286078798.9,27.8,29.7 
1440170556.1,286078802.4,27.8,29.2 
1440170575.3,286078801.4,27.8,29.7 
1440170595.4,286078799.6,27.8,29.2 
1440170615.5,286078797.7,27.8,30.2 
1440170635.7,286078799.0,27.8,31.2 
1440170655.8,286078801.4,27.8,30.7 
1440170675.9,286078797.4,27.8,30.2 
1440170696.1,286078799.7,27.8,31.2 
1440170715.3,286078800.0,27.8,30.2 
1440170735.4,286078801.6,27.8,30.2 
1440170755.5,286078801.2,27.8,30.7 
1440170775.7,286078799.2,27.8,31.2 
1440170795.8,286078802.8,27.8,30.7 
1440170815.9,286078795.2,27.8,30.7 
1440170836.0,286078806.3,27.8,30.2 
1440170855.3,286078799.6,27.8,29.7 
1440170875.4,286078799.0,27.8,29.2 
1440170895.5,286078800.8,27.8,29.2 
1440170915.6,286078796.9,27.8,29.7 
1440170935.8,286078802.2,27.8,29.2 
1440170955.9,286078803.1,27.8,30.2 
1440170976.0,286078795.4,27.8,30.2 
1440170995.2,286078800.1,27.8,30.7 
1440171015.4,286078798.9,27.8,31.2 
1440171035.5,286078801.0,27.8,30.2 
1440171055.6,286078797.0,27.8,30.2 
1440171075.8,286078804.1,27.8,30.2 
1440171095.9,286078798.9,27.8,31.2 
1440171116.0,286078800.1,27.8,31.7 
1440171135.2,286078800.9,27.8,31.7 
1440171155.4,286078803.1,27.8,31.2 
1440171175.5,286078796.1,27.8,30.7 
1440171195.6,286078799.7,27.8,30.7 
1440171215.7,286078799.3,27.8,30.7 
1440171235.9,286078803.0,27.8,30.2 
1440171256.0,286078798.2,27.8,29.2 
1440171275.2,286078799.1,27.8,29.2 
1440171295.3,286078799.1,27.8,30.2 
1440171315.5,286078802.5,27.8,29.2 
1440171335.6,286078798.9,27.8,28.7 
1440171355.7,286078800.9,27.8,28.2 
1440171375.8,286078799.6,27.8,28.7 
1440171396.0,286078797.7,27.8,29.2 
1440171416.1,286078800.8,27.8,29.7 
1440171435.3,286078801.4,27.8,29.2 
1440171455.4,286078799.6,27.8,28.7 
1440171475.6,286078802.4,27.8,29.7 
1440171495.7,286078799.1,27.8,30.2 
1440171515.8,286078801.0,27.8,31.7 
1440171535.9,286078799.9,27.8,32.2 
1440171556.1,286078795.5,27.8,31.2 
1440171575.3,286078800.7,27.8,31.2 
1440171595.4,286078800.5,27.8,31.2 
1440171615.5,286078799.1,27.8,31.2 
1440171635.7,286078797.9,27.8,32.2 
1440171655.8,286078803.8,27.8,31.7 
1440171675.9,286078799.2,27.8,30.2 
1440171696.0,286078799.7,27.8,29.7 
1440171715.3,286078803.1,27.8,29.7 
1440171735.4,286078797.2,27.8,30.2 
1440171755.5,286078800.8,27.8,28.7 
1440171775.6,286078797.6,27.8,28.7 
1440171795.8,286078801.2,27.8,30.2 
1440171815.9,286078799.1,27.8,30.2 
1440171836.0,286078804.5,27.8,31.7 
1440171855.2,286078801.3,27.8,32.2 
1440171875.4,286078797.2,27.8,34.2 
1440171895.5,286078798.9,27.8,33.2 
1440171915.6,286078797.4,27.8,32.2 
1440171935.7,286078804.1,27.8,31.2 
1440171955.9,286078802.4,27.8,31.2 
1440171976.0,286078799.7,27.8,28.7 
1440171995.2,286078799.3,27.8,29.7 
1440172015.3,286078798.8,27.8,31.7 
1440172035.5,286078801.6,27.8,31.2 
1440172055.6,286078798.4,27.8,31.2 
1440172075.7,286078802.8,27.8,31.2 
1440172095.8,286078799.2,27.8,31.2 
1440172116.0,286078799.2,27.8,30.7 
1440172136.1,286078800.5,27.8,32.2 
1440172155.3,286078802.0,27.8,32.2 
1440172175.4,286078800.8,27.8,32.2 
1440172195.6,286078798.7,27.8,32.2 
1440172215.7,286078803.1,27.8,31.2 
1440172235.8,286078800.4,27.8,31.7 
1440172255.9,286078803.1,27.8,32.2 
1440172276.1,286078795.7,27.8,32.2 
1440172295.3,286078802.3,27.8,31.7 
1440172315.4,286078801.1,27.8,31.7 
1440172335.5,286078799.2,27.8,30.7 
1440172355.7,286078796.9,27.8,30.2 
1440172375.8,286078800.6,27.8,30.2 
1440172395.9,286078799.2,27.8,30.2 
1440172416.0,286078799.7,27.8,29.7 
1440172435.3,286078799.4,27.8,29.7 
1440172455.4,286078800.8,27.8,29.2 
1440172475.5,286078798.9,27.8,29.2 
1440172495.6,286078799.0,27.8,30.2 
1440172515.8,286078800.8,27.8,31.2 
1440172535.9,286078800.5,27.8,31.2 
1440172556.0,286078798.1,27.8,30.7 
1440172575.2,286078799.5,27.8,30.2 
1440172595.4,286078801.4,27.8,30.7 
1440172615.5,286078798.9,27.8,30.7 
1440172635.6,286078800.2,27.8,31.2 
1440172655.7,286078799.8,27.8,31.2 
1440172675.9,286078800.4,27.8,32.2 
1440172696.0,286078802.3,27.8,33.2 
1440172715.2,286078798.6,27.8,34.7 
1440172735.4,286078802.7,27.8,35.2 
1440172755.5,286078798.6,27.8,35.2 
1440172775.6,286078802.1,27.8,34.7 
1440172795.7,286078801.3,27.8,34.2 
